Find Starlink 11340

NORAD ID: 61690 Int'l Des: 2024-195 Owner: SPXS Country: US Constellation: starlink operational
LEOCIRCULAR

Current View

Loading 3D Globe...

About Starlink 11340

Starlink 11340 (NORAD 61690) is a starlink constellation satellite (v2 mini d2c) launched Oct 30, 2024 by SPXS of US. It operates in LEO, CIRCULAR orbit with a mass of 960.00 kg.

About Starlink 11340

Description loading...

Upcoming Passes

Passes for default location (London). Set your location on the main map for personalized predictions.

Altitude History

Loading altitude history...

Two-Line Element Set

1 61690U 24195D 26167.52037920 .00001763 00000-0 19410-4 0 9999
2 61690 53.1583 259.2403 0000818 84.1436 275.9676 15.69706336 94558
Epoch: Jun 16, 2026 • Age: 17 hours

Current Status

Altitude 361.5 km
Velocity 7.70 km/s
Sub-Earth Point 32.55°N, 53.53°E
Launch Date Oct 30, 2024
Age 1.6 years
Type internet

Technical Details

Classification Payload
Mass 960.00 kg
Dry Mass 910.00 kg
Total Mass 960.00 kg
Length 0.30 m
Diameter 4.10 m
Span 29.00 m
Shape Box + pan
Manufacturer SPXS
Bus Type Starlink V2MD
Phase Status In Orbit
Owner/State SPXS/US

Most Searched